Flag for Germany Weather past 2 weeks in Lindlar, North Rhine-Westphalia, Germany

Now
64 °F

Fog.


Feels Like: 64 °F
Forecast: 59 / 77 °F
Wind: 1 mph from Southeast

Location: Koeln / Bonn

Current Time: Jul 23, 2014 at 3:55:46 AM

Latest Report: Jul 23, 2014 at 3:00 AM


Visibility: 19 mi

Pressure: 30.05 "Hg

Humidity: 96%

Dew point: 63 °F

Location of LindlarLocation

Historic Weather in Lindlar — Graph

°F

Lindlar temperature yesterday

Maximum temperature yesterday: 82 °F (at 3:00 PM)
Minimum temperature yesterday: 66 °F (at 1:00 AM)
Average temperature yesterday: 73 °F

Past Weeks' High & Low Weather Summary

 TemperatureHumidityPressure
High92 °F (Jul 19, 4:00 PM)100% (Jul 22, 6:00 AM)30.18 "Hg (Jul 22, 6:00 AM)
Low53 °F (Jul 9, 2:00 AM)28% (Jul 19, 3:00 PM)29.66 "Hg (Jul 9, 6:00 PM)
Average68 °F78%29.92 "Hg
* Reported Jul 8 3:00 AM — Jul 23 3:00 AM, Lindlar, Weather by CustomWeather, © 2014

Note: Actual official high and low records may vary slightly from our data, if they occured in-between our weather recording intervals... More about our weather records

Advertising

Lindlar weather history for previous 24 hours

 ConditionsComfort  
Time TempWeatherWind HumidityBarometerVisibility
3:00 AM
Jul 23
64 °FFog.1 mph96%30.05 "Hg19 mi
2:00 AM64 °FFog.1 mph96%30.06 "Hg19 mi
7:00 PM
Jul 22
80 °FOvercast.7 mph63%29.99 "Hg19 mi
6:00 PM80 °FOvercast.6 mph60%29.98 "Hg15 mi
5:00 PM82 °FOvercast.7 mph58%29.98 "Hg16 mi
4:00 PM82 °FOvercast.6 mph57%29.98 "Hg16 mi
3:00 PM82 °FOvercast.5 mph58%29.98 "Hg19 mi
2:00 PM80 °FOvercast.3 mph59%29.99 "Hg19 mi
1:00 PM78 °FPartly sunny.2 mph64%29.99 "Hg19 mi
12:00 PM76 °FPartly sunny.5 mph66%29.99 "Hg12 mi
11:00 AM73 °FPartly sunny.3 mph80%30.00 "Hg8 mi
10:00 AM72 °FOvercast.3 mph87%29.99 "Hg5 mi
9:00 AM69 °FFog.3 mph95%29.98 "Hg3 mi
8:00 AM68 °FFog.3 mph99%29.97 "Hg1 mi
7:00 AM67 °FFog.2 mph100%29.96 "Hg1 mi
6:00 AM67 °FLow clouds.3 mph100%29.96 "Hg1 mi
5:00 AM67 °FFog.5 mph99%29.96 "Hg1 mi
4:00 AM67 °FFog.2 mph98%29.95 "Hg2 mi
3:00 AM66 °FLow clouds.3 mph98%29.95 "Hg2 mi
Weather by CustomWeather, © 2014

See weather overviewHow to use our weather pages